Flag for U.S.A. Weather past 2 weeks in Inglewood, California, U.S.A.

Now
71 °F

Partly sunny.


Feels Like: 72 °F
Forecast: 67 / 81 °F
Wind: 7 mph from West

Location: Hawthorne Municipal Airport

Current Time: Aug 1, 2015 at 9:21:58 PM

Latest Report: Aug 1, 2015 at 8:53 PM


Visibility: 10 mi

Pressure: 29.90 "Hg

Humidity: 78%

Dew point: 64 °F

Location of InglewoodLocation

Historic Weather in Inglewood — Graph

°F

Inglewood temperature yesterday

Maximum temperature yesterday: 79 °F (at 12:53 PM)
Minimum temperature yesterday: 69 °F (at 10:53 PM)
Average temperature yesterday: 74 °F

Past Weeks' High & Low Weather Summary

 TemperatureHumidityPressure
High90 °F (Jul 19, 11:53 AM)93% (Jul 20, 9:53 PM)30.08 "Hg (Jul 20, 9:53 PM)
Low66 °F (Jul 18, 2:53 AM)34% (Jul 18, 1:53 PM)29.82 "Hg (Jul 17, 7:53 PM)
Average74 °F73%29.95 "Hg
* Reported Jul 17 7:53 PM — Aug 1 7:53 PM, Inglewood, Weather by CustomWeather, © 2015

Note: Actual official high and low records may vary slightly from our data, if they occured in-between our weather recording intervals... More about our weather records

Advertising

Inglewood weather history for previous 24 hours

 ConditionsComfort  
Time TempWeatherWind HumidityBarometerVisibility
7:53 PM
Sat, Aug 1
73 °FOvercast.9 mph76%29.89 "Hg10 mi
7:04 PM75 °FPartly sunny.10 mph71%29.89 "Hg10 mi
6:53 PM74 °FScattered clouds.10 mph74%29.89 "Hg10 mi
5:53 PM76 °FSunny.12 mph69%29.88 "Hg10 mi
4:53 PM78 °FSunny.12 mph60%29.89 "Hg10 mi
3:53 PM77 °FSunny.10 mph60%29.90 "Hg10 mi
2:53 PM76 °FSunny.14 mph62%29.91 "Hg10 mi
1:53 PM77 °FSunny.12 mph58%29.93 "Hg10 mi
12:53 PM77 °FSunny.12 mph60%29.95 "Hg10 mi
11:53 AM76 °FSunny.7 mph62%29.96 "Hg10 mi
10:53 AM77 °FSunny.8 mph60%29.97 "Hg10 mi
9:53 AM73 °FScattered clouds.No wind69%29.98 "Hg10 mi
8:53 AM71 °FOvercast.No wind76%29.99 "Hg9 mi
7:53 AM70 °FOvercast.3 mph79%29.98 "Hg9 mi
6:53 AM70 °FOvercast.5 mph79%29.98 "Hg9 mi
5:53 AM69 °FOvercast.No wind81%29.96 "Hg10 mi
4:53 AM69 °FOvercast.No wind84%29.96 "Hg9 mi
3:53 AM69 °FLow clouds.3 mph84%29.96 "Hg9 mi
2:53 AM69 °FLow clouds.3 mph87%29.96 "Hg8 mi
2:04 AM68 °FLow clouds.5 mph90%29.97 "Hg8 mi
1:53 AM68 °FLow clouds.No wind90%29.96 "Hg7 mi
12:53 AM69 °FLow clouds.5 mph87%29.97 "Hg8 mi
11:53 PM
Fri, Jul 31
69 °FLow clouds.6 mph87%29.96 "Hg10 mi
10:53 PM69 °FLow clouds.6 mph84%29.96 "Hg10 mi
9:53 PM70 °FOvercast.7 mph84%29.97 "Hg10 mi
Weather by CustomWeather, © 2015

See weather overviewHow to use our weather pages